Spencer, IA

12:05 AM CDT on July 22, 2017 (GMT -0500)
Spencer Municipal

Weather History for KSPW - June, 2013

Change the Weather History Date:

Wednesday, June 12, 2013

  Actual Average Record
Temperature  
Mean Temperature 70 °F -  
Max Temperature 77 °F 81 °F 95 °F (2016)
Min Temperature 62 °F 59 °F 41 °F (2006)
Cooling Degree Days 5    
Growing Degree Days 20 (Base 50)    
Moisture  
Dew Point 64 °F    
Average Humidity 85    
Maximum Humidity 94    
Minimum Humidity 70    
Precipitation  
Precipitation 0.43 in - - ()
Sea Level Pressure  
Sea Level Pressure 29.80 in    
Wind  
Wind Speed 14 mph (NNE)    
Max Wind Speed 31 mph    
Max Gust Speed 38 mph    
Visibility 8 miles    
Events Rain , Thunderstorm    
Averages and records for this station are not official NWS values.
T = Trace of Precipitation, MM = Missing Value Source: NWS Daily Summary

Daily Weather History Graph

Daily Weather History Graph

Search for Another Location

Airport or City:

Trip Planner

Search our weather history database for the weather conditions in past years. The results will help you decide how hot, cold, wet, or windy it might be!

Date:

Astronomy

Jun. 12, 2013 Rise Set
Actual Time 5:40 AM CDT 9:01 PM CDT
Civil Twilight 5:05 AM CDT 9:36 PM CDT
Nautical Twilight 4:19 AM CDT 10:22 PM CDT
Astronomical Twilight 3:22 AM CDT 11:19 PM CDT
Moon 9:25 AM CDT (6/12) 11:31 PM CDT (6/12)
Length of Visible Light 16h 31m
Length of Day
15h 20m
Waxing Crescent, 14% of the Moon is Illuminated
Jun 12
Waxing Crescent
Jun 16
First Quarter
Jun 23
Full
Jun 29
Last Quarter
Jul 8
New

Hourly Weather History & Observations

Time (CDT) Temp. Dew Point Humidity Pressure Visibility Wind Dir Wind Speed Gust Speed Precip Events Conditions
12:53 AM 73.0 °F 68.0 °F 84% 29.79 in 10.0 mi ENE 16.1 mph 24.2 mph N/A   Clear
1:53 AM 71.1 °F 66.9 °F 87% 29.75 in 9.0 mi ENE 17.3 mph - N/A   Clear
2:16 AM 71.6 °F 66.2 °F 83% 29.83 in 9.0 mi ENE 9.2 mph - N/A Thunderstorm Mostly Cloudy
2:32 AM 69.8 °F 66.2 °F 88% 29.80 in 1.8 mi East 13.8 mph - 0.18 in Rain , Thunderstorm Heavy Thunderstorms and Rain
2:40 AM 69.8 °F 68.0 °F 94% 29.80 in 3.0 mi East 12.7 mph - 0.22 in Rain , Thunderstorm Thunderstorms and Rain
2:53 AM 70.0 °F 68.0 °F 93% 29.81 in 5.0 mi East 8.1 mph - 0.23 in Rain , Thunderstorm Light Thunderstorms and Rain
3:12 AM 69.8 °F 66.2 °F 88% 29.82 in 1.8 mi ESE 16.1 mph - 0.17 in Rain , Thunderstorm Heavy Thunderstorms and Rain
3:22 AM 69.8 °F 68.0 °F 94% 29.79 in 3.0 mi East 16.1 mph 23.0 mph 0.19 in Rain , Thunderstorm Light Thunderstorms and Rain
3:30 AM 69.8 °F 68.0 °F 94% 29.79 in 5.0 mi ESE 8.1 mph 23.0 mph 0.20 in Rain , Thunderstorm Light Thunderstorms and Rain
3:42 AM 69.8 °F 68.0 °F 94% 29.76 in 6.0 mi SE 9.2 mph - 0.20 in Rain Light Rain
3:53 AM 70.0 °F 68.0 °F 93% 29.70 in 10.0 mi ESE 12.7 mph - 0.20 in Rain Light Rain
4:53 AM 71.1 °F 69.1 °F 93% 29.66 in 10.0 mi SE 18.4 mph - 0.00 in   Clear
5:34 AM 71.6 °F 68.0 °F 88% 29.68 in 9.0 mi SE 17.3 mph 31.1 mph N/A   Scattered Clouds
5:53 AM 71.1 °F 68.0 °F 90% 29.68 in 10.0 mi ESE 12.7 mph - N/A   Partly Cloudy
6:53 AM 70.0 °F 66.9 °F 90% 29.75 in 10.0 mi North 3.5 mph - N/A   Clear
7:18 AM 71.6 °F 68.0 °F 88% 29.79 in 10.0 mi NNW 6.9 mph - N/A   Mostly Cloudy
7:53 AM 72.0 °F 69.1 °F 91% 29.75 in 10.0 mi North 5.8 mph - N/A   Overcast
8:20 AM 73.4 °F 69.8 °F 88% 29.77 in 10.0 mi NE 9.2 mph - N/A   Mostly Cloudy
8:27 AM 73.4 °F 69.8 °F 88% 29.76 in 10.0 mi NE 6.9 mph - N/A   Partly Cloudy
8:53 AM 75.0 °F 69.1 °F 82% 29.73 in 10.0 mi East 5.8 mph - N/A   Scattered Clouds
9:13 AM 75.2 °F 69.8 °F 83% 29.76 in 10.0 mi ESE 5.8 mph - N/A   Mostly Cloudy
9:37 AM 77.0 °F 69.8 °F 78% 29.76 in 10.0 mi Calm Calm - N/A   Mostly Cloudy
9:53 AM 75.9 °F 69.1 °F 79% 29.73 in 10.0 mi North 4.6 mph - N/A   Overcast
10:13 AM 68.0 °F 64.4 °F 88% 29.77 in 7.0 mi North 19.6 mph - N/A   Overcast
10:46 AM 66.2 °F 62.6 °F 88% 29.77 in 8.0 mi NNE 19.6 mph - N/A   Overcast
10:53 AM 66.0 °F 62.1 °F 87% 29.75 in 9.0 mi NE 19.6 mph - N/A   Overcast
11:53 AM 69.1 °F 64.0 °F 84% 29.77 in 10.0 mi NNE 15.0 mph - N/A   Overcast
12:53 PM 69.1 °F 64.9 °F 87% 29.79 in 7.0 mi North 8.1 mph - N/A   Overcast
1:53 PM 69.1 °F 64.9 °F 87% 29.79 in 6.0 mi NNW 8.1 mph - N/A   Overcast
2:53 PM 71.1 °F 66.0 °F 84% 29.80 in 8.0 mi WNW 10.4 mph - N/A   Overcast
3:11 PM 69.8 °F 64.4 °F 83% 29.82 in 8.0 mi WNW 18.4 mph 25.3 mph N/A   Overcast
3:53 PM 68.0 °F 63.0 °F 84% 29.81 in 10.0 mi NNW 20.7 mph 28.8 mph N/A   Overcast
4:02 PM 66.2 °F 62.6 °F 88% 29.83 in 10.0 mi NNW 23.0 mph 29.9 mph N/A   Overcast
4:53 PM 64.9 °F 59.0 °F 81% 29.83 in 10.0 mi NNW 24.2 mph 36.8 mph N/A   Overcast
5:00 PM 64.4 °F 57.2 °F 77% 29.85 in 10.0 mi NNW 31.1 mph 38.0 mph N/A   Overcast
5:33 PM 64.4 °F 55.4 °F 73% 29.86 in 10.0 mi NNW 28.8 mph 38.0 mph N/A   Overcast
5:53 PM 64.0 °F 57.0 °F 78% 29.86 in 10.0 mi NNW 28.8 mph 38.0 mph N/A   Overcast
6:53 PM 63.0 °F 55.0 °F 75% 29.87 in 10.0 mi North 24.2 mph 32.2 mph N/A   Overcast
7:53 PM 63.0 °F 54.0 °F 72% 29.90 in 10.0 mi NNW 19.6 mph - N/A   Overcast
8:53 PM 64.0 °F 54.0 °F 70% 29.92 in 10.0 mi North 18.4 mph 27.6 mph N/A   Overcast
9:53 PM 64.0 °F 54.0 °F 70% 29.96 in 10.0 mi NNW 15.0 mph 21.9 mph N/A   Overcast
10:53 PM 63.0 °F 55.9 °F 78% 29.99 in 10.0 mi NW 12.7 mph - N/A   Overcast
11:53 PM 62.1 °F 55.0 °F 78% 30.00 in 10.0 mi NW 9.2 mph - N/A   Partly Cloudy